User: anonymous   Login
Location: Township of South Roscoe
(37.9570°N, 100.1180°W)
Time: 23:22:57
(UTC+00:00)
Language:

COSMO-SKYMED 1 - Orbit

View from above orbital plane
View from above orbital plane
View from above satellite
View from above satellite

Ground track
Ground track

The orbit data is extracted from the following two-line orbital elements,

1 31598U 07023A   22017.44828982 -.00000031  00000-0  25986-5 0  9995
2 31598  97.8811 203.2973 0001453  95.9167 264.2220 14.82155573790597
Epoch (UTC): 17 January 2022 10:45:32
Eccentricity: 0.0001453
inclination: 97.8811°
perigee height: 621 km
apogee height: 623 km
right ascension of ascending node: 203.2973°
argument of perigee: 95.9167°
revolutions per day: 14.82155573
mean anomaly at epoch: 264.2220°
orbit number at epoch: 79059

The dashed part of the orbit path shows where the satellite is in the earth's shadow,  

DLR